Location: Alpha Ridge Park
(39.3209°N, 76.9128°W)
Time: 00:50:31
(UTC-04:00)

Vanguard 2 Rocket - Pass Details

Date: 21 May 2019
Orbit: 555 x 3326 km, 32.9° (Epoch: 25 June)

Event Time Altitude Azimuth Distance (km) Brightness Sun altitude
Rises 07:18:51 0° 235° (SW) 7,161 10.9 15.4°
Reaches altitude 10° 07:24:14 10° 231° (SW) 5,920 10.6 16.4°
Maximum altitude 07:40:18 49° 164° (SSE) 2,677 9.6 19.4°
Drops below altitude 10° 07:50:02 10° 93° (E) 3,708 11.9 21.3°
Sets 07:52:36 0° 87° (E) 4,389 11.9 21.8°
